Hourly Data Report for May 25, 2017

FISHER BRANCH (AUT)
MANITOBA

51°05'00.100" N
97°33'16.200" W
253.00 m
50309J6
71442
WSZ

Download Data

Hourly Data (May 2017)
Hourly Data Report for May 25, 2017
TIME
LST
Temp Definition
°C
Dew Point Definition
°C
Rel Hum Definition
%
Precip. Amount Definition
mm

Wind Dir Definition
10's deg

Wind Spd Definition
km/h
Visibility Definition
km
Stn Press Definition
kPa
Hmdx Definition


Wind Chill Definition


Weather Definition


00:00 11.6 4.0 59 0.0 13 17   97.18     LegendNANA
01:00 11.1 4.3 63 0.0 13 16   97.15     LegendNANA
02:00 11.1 4.6 64 0.0 13 16   97.15     LegendNANA
03:00 11.3 4.7 64 0.0 14 21   97.15     LegendNANA
04:00 11.4 4.9 64 0.0 15 22   97.11     LegendNANA
05:00 11.7 5.3 65 0.0 15 25   97.07     LegendNANA
06:00 11.8 5.7 66 0.0 13 24   97.00     LegendNANA
07:00 13.0 5.8 61 0.0 14 23   97.04     LegendNANA
08:00 13.4 5.6 59 0.0 15 29   97.05     LegendNANA
09:00 13.7 6.2 61 0.0 14 26   97.04     LegendNANA
10:00 14.1 6.1 59 0.0 14 32   97.04     LegendNANA
11:00 14.2 6.8 61 0.0 14 27   97.04     LegendNANA
12:00 15.6 7.5 58 0.0 13 30   96.96     LegendNANA
13:00 15.9 8.1 60 0.0 12 35   96.91     LegendNANA
14:00 16.6 7.2 54 0.0 12 37   96.89     LegendNANA
15:00 17.8 7.8 52 0.0 14 37   96.86     LegendNANA
16:00 17.9 7.1 49 0.0 13 34   96.86     LegendNANA
17:00 17.0 6.7 51 0.0 14 29   96.89     LegendNANA
18:00 17.2 7.1 51 0.0 14 33   96.90     LegendNANA
19:00 16.9 7.6 54 0.0 14 25   96.87     LegendNANA
20:00 16.1 8.3 60 0.0 13 31   96.85     LegendNANA
21:00 15.4 8.3 63 0.0 13 24   96.86     LegendNANA
22:00 14.3 8.7 69 0.0 13 19   96.84     LegendNANA
23:00 15.1 8.9 66 0.0 17 14   96.88     LegendNANA

Notes on Data Quality.

Legend

  • E = Estimated
  • M = Missing
  • NA = Not Available*
  • [empty] = Indicates an unobserved value
Date modified: